Date Time,Air Temp,Sky Temp,Clarity,Light Level,Rain Sensor,Readings
2013-10-31 00:00:05,18.5,11.4,7.2,0.0,31.1,112
2013-10-31 00:05:05,18.4,10.0,8.4,0.0,17.0,111
2013-10-31 00:10:05,18.6,10.5,8.0,0.0,5.4,111
2013-10-31 00:15:05,18.6,11.6,7.0,0.0,19.9,111
2013-10-31 00:20:05,18.7,10.9,7.8,0.0,22.3,111
2013-10-31 00:25:05,18.7,10.7,7.9,0.0,17.7,112
2013-10-31 00:30:05,18.7,10.7,8.0,0.0,2.9,111
2013-10-31 00:35:05,18.5,9.6,8.9,0.0,2.7,112
2013-10-31 00:40:05,18.5,7.6,10.9,0.0,3.1,111
2013-10-31 00:45:05,18.5,8.4,10.1,0.0,2.4,112
2013-10-31 00:50:05,18.4,8.2,10.3,0.0,3.7,111
2013-10-31 00:55:05,18.4,7.2,11.2,0.0,5.5,112
2013-10-31 01:00:05,18.5,8.1,10.4,0.0,12.4,111
2013-10-31 01:05:05,18.6,11.2,7.4,0.0,19.9,112
2013-10-31 01:10:05,18.6,12.1,6.4,0.0,23.4,111
2013-10-31 01:15:05,18.7,10.7,8.0,0.0,6.0,111
2013-10-31 01:20:05,18.7,11.8,6.9,0.0,13.1,112
2013-10-31 01:25:06,18.8,11.8,7.0,0.0,21.4,111
2013-10-31 01:30:06,18.9,11.8,7.1,0.0,15.2,112
2013-10-31 01:35:06,19.0,11.9,7.1,0.0,12.7,111
2013-10-31 01:40:06,18.9,11.7,7.2,0.0,6.4,112
2013-10-31 01:45:06,18.8,11.7,7.1,0.0,4.7,111
2013-10-31 01:50:06,18.8,11.8,7.0,0.0,10.6,111
2013-10-31 01:55:06,18.8,11.4,7.4,0.0,9.4,111
2013-10-31 02:00:06,18.9,11.8,7.1,0.0,19.1,112
2013-10-31 02:05:06,19.0,12.3,6.7,0.0,33.8,111
2013-10-31 02:10:06,18.8,12.4,6.4,0.0,29.2,111
2013-10-31 02:15:06,19.0,11.1,7.9,0.0,9.0,112
2013-10-31 02:20:06,18.9,11.2,7.8,0.0,3.2,111
2013-10-31 02:25:06,18.8,11.5,7.3,0.0,2.6,111
2013-10-31 02:30:06,18.8,11.0,7.8,0.0,9.9,112
2013-10-31 02:35:06,18.9,11.2,7.7,0.0,7.2,111
2013-10-31 02:40:06,18.6,10.6,8.0,0.0,8.4,112
2013-10-31 02:45:06,18.9,10.0,8.9,0.0,5.6,111
2013-10-31 02:50:06,18.9,8.4,10.5,0.0,4.7,111
2013-10-31 02:55:06,18.9,9.2,9.7,0.0,15.4,111
2013-10-31 03:00:06,18.9,10.7,8.2,0.0,29.7,112
2013-10-31 03:05:06,18.9,10.0,9.0,0.0,19.7,111
2013-10-31 03:10:06,19.0,9.8,9.2,0.0,26.1,112
2013-10-31 03:15:06,18.8,10.2,8.6,0.0,31.7,111
2013-10-31 03:20:06,18.8,10.5,8.3,0.0,33.0,112
2013-10-31 03:25:06,18.8,10.9,7.9,0.0,30.3,111
2013-10-31 03:30:06,18.8,10.9,7.9,0.0,33.1,112
2013-10-31 03:35:06,18.8,11.2,7.6,0.0,33.6,111
2013-10-31 03:40:06,19.0,12.1,6.9,0.0,33.9,111
2013-10-31 03:45:06,18.6,11.4,7.3,0.0,29.8,112
2013-10-31 03:50:06,19.1,10.4,8.7,0.0,22.6,111
2013-10-31 03:55:06,18.9,9.9,9.0,0.0,29.8,111
2013-10-31 04:00:06,18.8,10.6,8.2,0.0,28.2,112
2013-10-31 04:05:06,18.5,10.3,8.2,0.0,32.3,111
2013-10-31 04:10:06,18.6,9.4,9.1,0.0,31.8,111
2013-10-31 04:15:06,18.6,10.3,8.3,0.0,23.5,112
2013-10-31 04:20:06,18.8,11.5,7.3,0.0,26.6,111
2013-10-31 04:25:06,18.9,11.0,7.8,0.0,25.0,111
2013-10-31 04:30:06,18.9,10.5,8.4,0.0,21.0,111
2013-10-31 04:35:06,18.8,10.0,8.8,0.0,9.1,111
2013-10-31 04:40:06,18.6,10.9,7.7,0.0,12.3,112
2013-10-31 04:45:06,18.6,10.3,8.3,0.0,18.6,111
2013-10-31 04:50:06,18.6,10.0,8.7,0.0,23.8,111
2013-10-31 04:55:06,18.6,10.4,8.2,0.0,11.0,112
2013-10-31 05:00:06,18.5,10.7,7.8,0.0,3.4,111
2013-10-31 05:05:06,18.2,11.3,6.9,0.0,1.9,111
2013-10-31 05:10:06,18.1,10.1,8.0,0.0,1.9,111
2013-10-31 05:15:06,18.2,7.5,10.6,0.0,1.9,112
2013-10-31 05:20:06,18.3,8.0,10.3,0.0,1.9,112
2013-10-31 05:25:06,18.3,7.6,10.7,0.0,4.3,111
2013-10-31 05:30:06,18.3,6.6,11.7,0.0,6.3,111
2013-10-31 05:35:06,18.3,6.7,11.6,0.0,4.6,112
2013-10-31 05:40:06,18.3,7.0,11.3,0.0,4.3,111
2013-10-31 05:45:06,18.3,7.8,10.5,0.0,2.1,112
2013-10-31 05:50:06,18.3,7.6,10.6,0.0,2.4,111
2013-10-31 05:55:06,18.3,7.4,10.9,0.1,3.4,112
2013-10-31 06:00:06,18.3,7.5,10.8,0.1,7.4,111
2013-10-31 06:05:06,18.4,7.6,10.8,0.4,6.0,112
2013-10-31 06:10:06,18.2,6.2,12.1,0.7,2.9,111
2013-10-31 06:15:06,18.1,6.8,11.3,1.9,4.2,112
2013-10-31 06:20:06,18.1,6.2,11.8,3.3,4.3,111
2013-10-31 06:25:06,17.7,6.3,11.4,6.2,4.0,112
2013-10-31 06:30:06,17.9,6.7,11.3,11.4,3.6,111
2013-10-31 06:35:06,18.0,8.9,9.1,15.4,14.5,111
2013-10-31 06:40:06,18.1,11.0,7.1,18.2,11.5,112
2013-10-31 06:45:06,18.0,10.7,7.3,20.8,5.5,112
2013-10-31 06:50:06,17.8,9.7,8.1,24.2,4.7,111
2013-10-31 06:55:06,17.8,10.7,7.0,26.8,15.9,111
2013-10-31 07:00:06,18.0,10.1,7.9,28.4,21.0,112
2013-10-31 07:05:06,18.1,10.2,7.9,29.9,16.0,112
2013-10-31 07:10:06,18.1,10.1,8.0,30.6,18.0,111
2013-10-31 07:15:06,18.0,9.5,8.5,31.0,18.1,112
2013-10-31 07:20:06,18.3,9.9,8.4,31.4,15.9,111
2013-10-31 07:25:06,18.0,10.0,8.0,31.6,13.7,112
2013-10-31 07:30:06,17.9,10.4,7.5,31.7,13.3,111
2013-10-31 07:35:06,18.0,10.1,7.9,31.6,29.2,112
2013-10-31 07:40:06,18.1,10.3,7.8,31.7,31.2,112
2013-10-31 07:45:06,18.2,10.4,7.9,31.9,30.0,111
2013-10-31 07:50:06,18.2,10.1,8.1,31.8,21.0,112
2013-10-31 07:55:06,18.1,8.8,9.3,31.7,27.8,111
2013-10-31 08:00:06,18.1,8.0,10.1,31.8,23.6,112
2013-10-31 08:05:06,17.9,9.0,8.9,31.8,18.3,111
2013-10-31 08:10:06,17.8,9.1,8.7,32.0,23.2,111
2013-10-31 08:15:06,17.8,9.3,8.5,32.0,24.4,111
2013-10-31 08:20:06,17.8,9.1,8.8,31.9,17.3,112
2013-10-31 08:25:06,17.7,9.2,8.4,32.0,14.4,112
2013-10-31 08:30:06,17.7,8.9,8.8,32.1,22.7,111
2013-10-31 08:35:06,17.8,9.4,8.5,32.2,24.0,112
2013-10-31 08:40:06,18.0,9.7,8.3,32.3,19.2,111
2013-10-31 08:45:06,17.9,9.4,8.5,32.3,10.3,112
2013-10-31 08:50:06,17.9,9.5,8.3,32.3,3.9,111
2013-10-31 08:55:06,17.7,10.4,7.3,32.3,2.4,112
2013-10-31 09:00:06,17.7,11.8,5.8,32.3,2.4,111
2013-10-31 09:05:06,17.8,7.1,10.8,32.3,2.6,112
2013-10-31 09:10:06,18.0,7.0,11.0,32.3,2.6,111
2013-10-31 09:15:06,18.3,7.2,11.1,32.4,2.2,112
2013-10-31 09:20:06,18.5,7.5,11.0,32.4,1.9,111
2013-10-31 09:25:06,18.8,5.0,13.7,32.5,1.8,111
2013-10-31 09:30:06,18.9,4.0,14.9,32.5,2.0,112
2013-10-31 09:35:06,19.0,6.4,12.7,32.4,2.2,112
2013-10-31 09:40:06,19.1,6.2,12.9,32.4,2.2,111
2013-10-31 09:45:06,19.0,4.6,14.4,32.5,2.2,111
2013-10-31 09:50:06,19.1,6.0,13.1,32.4,2.2,112
2013-10-31 09:55:06,19.2,6.9,12.2,32.4,2.3,111
2013-10-31 10:00:06,19.2,7.0,12.2,32.4,2.7,111
2013-10-31 10:05:06,19.2,7.0,12.2,32.4,2.3,112
2013-10-31 10:10:06,19.2,6.8,12.4,32.4,2.3,111
2013-10-31 10:15:06,19.1,6.6,12.5,32.3,2.3,112
2013-10-31 10:20:06,19.1,6.9,12.1,32.4,2.3,111
2013-10-31 10:25:06,19.0,7.6,11.4,32.3,2.3,112
2013-10-31 10:30:06,18.9,8.2,10.7,32.3,2.2,111
2013-10-31 10:35:06,18.9,7.9,11.0,32.3,2.2,111
2013-10-31 10:40:06,18.9,7.8,11.1,32.4,2.2,112
2013-10-31 10:45:06,18.5,7.1,11.5,32.4,2.2,111
2013-10-31 10:50:06,18.9,7.4,11.6,32.4,2.2,112
2013-10-31 10:55:06,19.0,7.2,11.8,32.4,2.3,111
2013-10-31 11:00:06,19.0,7.0,12.0,32.4,2.3,112
2013-10-31 11:05:06,19.1,6.6,12.5,32.4,2.3,111
2013-10-31 11:10:06,19.1,7.0,12.1,32.4,2.3,111
2013-10-31 11:15:06,18.8,6.7,12.1,32.4,2.3,112
2013-10-31 11:20:06,19.1,7.3,11.8,32.4,2.3,111
2013-10-31 11:25:06,19.2,7.3,11.8,32.4,2.3,112
2013-10-31 11:30:06,19.2,6.1,13.1,32.4,2.3,111
2013-10-31 11:35:06,19.3,5.1,14.2,32.5,2.3,112
2013-10-31 11:40:06,19.3,5.4,13.9,32.5,2.4,112
2013-10-31 11:45:06,19.4,6.1,13.3,32.5,2.4,112
2013-10-31 11:50:06,19.5,7.2,12.3,32.4,2.5,111
2013-10-31 11:55:06,19.5,5.4,14.1,32.5,2.5,112
2013-10-31 12:00:06,19.6,4.9,14.7,32.5,2.6,112
2013-10-31 12:05:06,19.6,2.9,16.8,32.5,2.7,111
2013-10-31 12:10:06,19.8,4.4,15.3,32.5,2.7,111
2013-10-31 12:15:06,19.8,5.4,14.5,32.5,2.7,112
2013-10-31 12:20:06,19.6,2.1,17.5,32.5,2.6,112
2013-10-31 12:25:06,19.9,1.9,18.1,32.5,2.5,111
2013-10-31 12:30:06,19.9,2.6,17.3,32.5,2.6,111
2013-10-31 12:35:06,19.9,3.5,16.4,32.5,2.6,111
2013-10-31 12:40:06,19.9,2.3,17.5,32.5,2.6,111
2013-10-31 12:45:06,19.8,3.0,16.7,32.5,2.6,112
2013-10-31 12:50:06,19.7,1.5,18.2,32.5,2.7,111
2013-10-31 12:55:06,19.6,1.3,18.3,32.5,2.7,111
2013-10-31 13:00:06,19.6,2.1,17.5,32.4,2.7,111
2013-10-31 13:05:06,19.2,2.8,16.4,32.4,2.6,111
2013-10-31 13:10:06,19.6,1.7,17.9,32.4,2.6,112
2013-10-31 13:15:06,19.5,2.0,17.5,32.4,2.5,111
2013-10-31 13:20:06,19.5,3.3,16.2,32.4,2.5,111
2013-10-31 13:25:06,19.4,2.4,17.1,32.4,2.5,111
2013-10-31 13:30:06,19.4,2.4,17.1,32.4,2.4,112
2013-10-31 13:35:06,19.4,2.0,17.4,32.4,2.4,110
2013-10-31 13:40:06,19.4,1.7,17.8,32.4,2.4,111
2013-10-31 13:45:06,19.4,1.7,17.8,32.4,2.5,112
2013-10-31 13:50:06,19.4,1.8,17.7,32.4,2.5,110
2013-10-31 13:55:06,19.4,2.2,17.3,32.4,2.5,112
2013-10-31 14:00:06,19.4,1.7,17.7,32.4,2.4,111
2013-10-31 14:05:06,19.4,1.7,17.6,32.4,2.4,110
2013-10-31 14:10:06,19.3,1.9,17.5,32.4,2.4,112
2013-10-31 14:15:06,19.3,2.0,17.3,32.3,2.3,111
2013-10-31 14:20:06,19.3,2.0,17.3,32.3,2.3,111
2013-10-31 14:25:06,19.3,1.9,17.4,32.3,2.3,111
2013-10-31 14:30:06,19.3,2.2,17.1,32.3,2.3,111
2013-10-31 14:35:06,19.3,2.1,17.1,32.3,2.3,111
2013-10-31 14:40:06,19.3,2.2,17.1,32.3,2.3,111
2013-10-31 14:45:06,19.3,3.0,16.3,32.3,2.3,111
2013-10-31 14:50:06,19.3,3.7,15.5,32.3,2.3,112
2013-10-31 14:55:06,19.3,3.9,15.4,32.2,2.3,111
2013-10-31 15:00:06,19.2,3.8,15.5,32.2,2.3,111
2013-10-31 15:05:06,19.2,2.8,16.4,32.3,2.3,112
2013-10-31 15:10:06,19.2,2.4,16.8,32.3,2.3,110
2013-10-31 15:15:06,19.2,2.4,16.8,32.2,2.3,112
2013-10-31 15:20:06,19.2,2.4,16.7,32.2,2.3,111
2013-10-31 15:25:06,19.1,2.9,16.2,32.2,2.3,111
2013-10-31 15:30:06,19.1,4.2,14.9,32.1,2.3,112
2013-10-31 15:35:06,19.1,3.4,15.7,32.1,2.3,111
2013-10-31 15:40:06,19.1,2.3,16.9,32.1,2.3,111
2013-10-31 15:45:06,19.1,2.2,16.9,32.1,2.3,111
2013-10-31 15:50:06,19.1,2.4,16.8,32.0,2.3,111
2013-10-31 15:55:06,19.1,2.1,17.0,32.0,2.3,111
2013-10-31 16:00:06,19.1,1.9,17.2,31.9,2.3,111
2013-10-31 16:05:06,19.1,1.8,17.3,31.9,2.3,111
2013-10-31 16:10:06,19.0,1.9,17.1,31.8,2.3,111
2013-10-31 16:15:06,19.0,2.0,17.0,31.7,2.3,111
2013-10-31 16:20:07,19.0,2.1,16.9,31.5,2.3,111
2013-10-31 16:25:07,19.0,4.0,15.0,31.1,2.3,112
2013-10-31 16:30:07,19.0,6.2,12.8,29.9,2.5,111
2013-10-31 16:35:07,19.1,4.0,15.0,29.7,2.3,112
2013-10-31 16:40:07,19.1,4.7,14.4,28.5,2.3,112
2013-10-31 16:45:07,19.0,2.2,16.9,28.0,2.3,111
2013-10-31 16:50:07,19.0,2.5,16.5,26.2,2.3,111
2013-10-31 16:55:07,18.9,3.5,15.4,23.0,2.3,111
2013-10-31 17:00:07,18.9,6.7,12.2,17.2,2.3,112
2013-10-31 17:05:07,19.0,6.7,12.3,13.1,2.3,111
2013-10-31 17:10:07,19.0,6.4,12.6,8.2,2.3,111
2013-10-31 17:15:07,19.0,4.9,14.2,5.2,2.3,112
2013-10-31 17:20:07,18.7,5.2,13.4,2.7,2.3,112
2013-10-31 17:25:07,19.0,4.3,14.7,1.5,2.3,111
2013-10-31 17:30:07,19.0,4.7,14.3,0.8,2.3,112
2013-10-31 17:35:07,18.7,4.5,14.2,0.5,2.3,111
2013-10-31 17:40:07,19.0,4.7,14.3,0.3,2.3,112
2013-10-31 17:45:07,19.0,4.5,14.5,0.2,2.3,112
2013-10-31 17:50:07,19.0,4.2,14.8,0.2,2.6,111
2013-10-31 17:55:07,19.0,4.7,14.3,0.2,2.3,112
2013-10-31 18:00:07,18.9,4.7,14.2,0.2,4.6,111
2013-10-31 18:05:07,18.8,4.8,14.0,0.2,3.6,112
2013-10-31 18:10:07,18.7,4.8,13.9,0.2,6.4,111
2013-10-31 18:15:07,18.6,4.4,14.2,0.2,3.5,112
2013-10-31 18:20:07,18.5,4.3,14.2,0.2,2.4,111
2013-10-31 18:25:07,18.4,4.7,13.7,0.2,2.1,112
2013-10-31 18:30:07,18.4,5.3,13.1,0.2,2.1,112
2013-10-31 18:35:07,18.4,5.7,12.8,0.2,2.0,111
2013-10-31 18:40:07,18.5,5.8,12.7,0.2,1.9,112
2013-10-31 18:45:07,18.6,5.9,12.7,0.2,1.9,112
2013-10-31 18:50:07,18.7,6.2,12.5,0.2,1.9,111
2013-10-31 18:55:07,18.8,6.1,12.7,0.2,2.0,111
2013-10-31 19:00:07,18.8,6.1,12.7,0.2,2.2,112
2013-10-31 19:05:07,18.9,6.1,12.8,0.2,2.1,111
2013-10-31 19:10:07,18.9,6.0,12.9,0.2,2.2,111
2013-10-31 19:15:07,18.9,6.1,12.8,0.2,2.6,112
2013-10-31 19:20:07,18.9,5.8,13.1,0.2,2.8,111
2013-10-31 19:25:07,18.9,5.9,12.9,0.2,2.2,112
2013-10-31 19:30:07,18.9,5.8,13.1,0.2,2.2,111
2013-10-31 19:35:07,18.9,5.5,13.3,0.2,2.2,112
2013-10-31 19:40:07,18.9,5.5,13.3,0.2,2.2,112
2013-10-31 19:45:07,18.9,5.6,13.3,0.2,2.2,111
2013-10-31 19:50:07,18.9,5.6,13.3,0.2,2.2,112
2013-10-31 19:55:07,18.9,4.1,14.8,0.1,2.2,112
2013-10-31 20:00:07,18.9,4.2,14.7,0.2,2.2,111
2013-10-31 20:05:07,18.9,4.1,14.7,0.2,2.2,112
2013-10-31 20:10:07,18.9,1.6,17.3,0.1,2.2,111
2013-10-31 20:15:07,18.8,3.9,15.0,0.1,2.2,111
2013-10-31 20:20:07,18.9,6.4,12.4,0.2,2.1,111
2013-10-31 20:25:07,18.9,6.8,12.1,0.2,2.2,112
2013-10-31 20:30:07,19.0,7.0,12.0,0.2,2.4,111
2013-10-31 20:35:07,19.0,8.2,10.8,0.1,8.4,111
2013-10-31 20:40:07,19.0,11.5,7.5,0.1,18.9,111
2013-10-31 20:45:07,18.7,11.3,7.4,0.1,10.2,111
2013-10-31 20:50:07,18.5,10.5,8.0,0.1,2.2,112
2013-10-31 20:55:07,18.5,9.8,8.7,0.1,2.0,111
2013-10-31 21:00:07,18.5,6.8,11.6,0.1,2.0,112
2013-10-31 21:05:07,18.5,7.4,11.1,0.1,2.0,112
2013-10-31 21:10:07,18.6,8.1,10.5,0.1,1.9,111
2013-10-31 21:15:07,18.6,4.8,13.8,0.2,2.0,112
2013-10-31 21:20:07,18.6,5.1,13.5,0.2,2.0,111
2013-10-31 21:25:07,18.7,5.7,13.0,0.2,2.0,112
2013-10-31 21:30:07,18.7,6.5,12.3,0.2,2.7,111
2013-10-31 21:35:07,18.8,6.3,12.5,0.2,3.3,111
2013-10-31 21:40:07,18.8,6.5,12.3,0.2,4.9,112
2013-10-31 21:45:07,18.8,5.8,12.9,0.2,6.1,111
2013-10-31 21:50:07,18.7,4.5,14.2,0.2,2.4,112
2013-10-31 21:55:07,18.7,4.5,14.2,0.2,2.2,112
2013-10-31 22:00:07,18.7,5.2,13.4,0.2,2.1,112
2013-10-31 22:05:07,18.8,4.7,14.1,0.2,2.8,112
2013-10-31 22:10:07,18.8,4.1,14.7,0.2,3.8,111
2013-10-31 22:15:07,18.8,4.5,14.3,0.2,7.0,112
2013-10-31 22:20:07,18.7,3.1,15.6,0.1,6.0,111
2013-10-31 22:25:07,18.6,2.9,15.7,0.1,5.5,112
2013-10-31 22:30:07,18.5,3.2,15.3,0.1,4.3,111
2013-10-31 22:35:07,18.4,3.0,15.4,0.1,3.0,111
2013-10-31 22:40:07,18.3,3.5,14.8,0.1,2.8,111
2013-10-31 22:45:07,18.3,3.3,15.0,0.1,2.4,111
2013-10-31 22:50:07,18.0,3.9,14.1,0.1,2.3,112
2013-10-31 22:55:07,18.4,3.7,14.7,0.1,2.5,111
2013-10-31 23:00:07,18.4,3.3,15.1,0.1,2.7,111
2013-10-31 23:05:07,18.5,3.2,15.2,0.1,2.5,112
2013-10-31 23:10:07,18.5,3.3,15.2,0.1,2.9,111
2013-10-31 23:15:07,18.4,3.6,14.9,0.1,3.8,111
2013-10-31 23:20:07,18.5,4.5,14.0,0.1,3.7,112
2013-10-31 23:25:07,18.5,4.8,13.7,0.1,3.9,112
2013-10-31 23:30:07,18.5,6.5,12.0,0.1,3.8,112
2013-10-31 23:35:07,18.5,7.0,11.5,0.1,2.9,111
2013-10-31 23:40:07,18.5,6.1,12.5,0.1,3.0,111
2013-10-31 23:45:07,18.6,5.0,13.6,0.1,4.9,112
2013-10-31 23:50:07,18.6,5.1,13.5,0.1,8.6,112
2013-10-31 23:55:07,18.6,5.9,12.7,0.1,8.2,112
